TJS-21

Last updated on Mon Dec 29 2025 00:02:06 GMT+0000 (Coordinated Universal Time)

1 66586U 25269A 25356.69533331 .00001087 00000+0 -73521-1 0 9994 2 66586 63.2754 161.3014 6807617 269.7248 18.6681 2.00587444 632
UTC large
Height (km)
Speed (km/s)
/
Latitude / Longitude
Inclination (degrees)
Orbital Period (minutes)
Azimuth
Elevation
Range (km)
Doppler Factor

Next 0 passes for location: London (51.5072 / 0.1276)

Sorry there are no passes over London.